GW1980 Weather Reports


Display with metric or nautical units.
time (UTC)temp
F
wind
direction
speed
MPH
gust
MPH
rain 1hr
in
rain 24hr
in
rain mn
in
humidity
%
barometer
mb
20260509211448 89 170 2.0 5.0 0.00 0.00 0.00 47 1008.7
20260509205954 90 166 0.0 6.0 0.00 0.00 0.00 41 1008.9
20260509204447 89 26 1.0 5.0 0.00 0.00 0.00 43 1009.1
20260509202950 88 167 0.0 2.0 0.00 0.00 0.00 46 1009.3
20260509195951 87 356 2.0 7.0 0.00 0.00 0.00 45 1009.6
20260509192948 86 54 2.0 6.0 0.00 0.04 0.00 45 1010.0
20260509191446 86 288 2.0 5.0 0.00 0.04 0.00 50 1010.1
20260509184447 85 13 3.0 7.0 0.00 0.04 0.00 52 1010.3
20260509182950 84 316 3.0 6.0 0.00 0.04 0.00 56 1010.5
20260509181448 84 285 1.0 6.0 0.00 0.04 0.00 54 1010.7
20260509175951 84 242 2.0 8.0 0.00 0.04 0.00 60 1011.0
20260509174446 83 264 1.0 7.0 0.00 0.04 0.00 58 1011.0
20260509172948 82 302 2.0 5.0 0.00 0.04 0.00 60 1011.4
20260509171446 82 330 2.0 6.0 0.00 0.04 0.00 58 1011.4
20260509165953 81 316 2.0 6.0 0.00 0.04 0.00 56 1011.5
20260509164447 80 269 2.0 6.0 0.00 0.04 0.00 59 1011.6
20260509162950 80 321 2.0 5.0 0.00 0.04 0.00 59 1011.7
20260509155952 77 304 1.0 4.0 0.00 0.04 0.00 70 1011.8
20260509152949 77 319 1.0 5.0 0.00 0.04 0.00 72 1011.7
20260509144447 75 338 4.0 9.0 0.00 0.04 0.00 77 1011.8
20260509141447 74 330 4.0 7.0 0.00 0.04 0.00 78 1011.7
20260509135951 74 338 4.0 9.0 0.00 0.04 0.00 78 1011.6
20260509134447 72 352 3.0 8.0 0.00 0.04 0.00 83 1011.6
20260509131447 68 1 4.0 8.0 0.00 0.04 0.00 88 1011.2
20260509125952 67 8 2.0 5.0 0.00 0.04 0.00 91 1011.1
20260509124447 67 29 3.0 5.0 0.00 0.04 0.00 91 1011.0
20260509122949 67 16 1.0 3.0 0.00 0.04 0.00 92 1010.9
20260509121447 66 40 1.0 4.0 0.00 0.04 0.00 96 1010.9
20260509115952 65 47 1.0 4.0 0.00 0.04 0.00 95 1011.0
20260509114447 65 25 0.0 0.0 0.00 0.08 0.00 95 1011.3
20260509112950 66 300 0.0 3.0 0.00 0.08 0.00 95 1011.0
20260509111447 66 153 1.0 3.0 0.00 0.08 0.00 95 1010.7
20260509105954 67 298 0.0 3.0 0.00 0.08 0.00 93 1010.6
20260509104447 68 53 2.0 4.0 0.00 0.08 0.00 93 1010.1
20260509101448 68 47 4.0 11.0 0.00 0.08 0.00 92 1009.9
20260509095952 69 146 7.0 19.0 0.00 0.08 0.00 92 1008.8
20260509094447 69 304 1.0 5.0 0.00 0.08 0.00 94 1008.2
20260509092949 69 238 3.0 13.0 0.00 0.08 0.00 95 1007.4
20260509091447 69 165 8.0 17.0 0.00 0.08 0.00 95 1007.5
20260509085952 69 194 7.0 13.0 0.00 0.08 0.00 95 1007.8
20260509084447 69 210 4.0 8.0 0.00 0.08 0.00 94 1008.9
20260509082950 68 184 3.0 6.0 0.00 0.08 0.00 94 1009.2
20260509081447 69 192 5.0 11.0 0.00 0.08 0.00 94 1009.4
20260509075951 68 160 5.0 10.0 0.00 0.08 0.00 95 1009.6
20260509074447 68 172 5.0 10.0 0.00 0.08 0.00 94 1010.3
20260509072950 68 176 1.0 3.0 0.00 0.08 0.00 93 1011.4
20260509071447 68 148 3.0 6.0 0.00 0.08 0.00 93 1011.8
20260509065950 68 77 4.0 9.0 0.00 0.08 0.00 94 1012.8
20260509061445 66 355 2.0 4.0 0.00 0.08 0.00 97 1012.4
20260509055951 66 53 2.0 6.0 0.00 0.08 0.00 96 1011.9
20260509054447 67 160 0.0 0.0 0.00 0.08 0.00 95 1010.9
20260509052950 67 160 0.0 1.0 0.00 0.08 0.00 95 1011.0
20260509051447 68 88 0.0 2.0 0.00 0.08 0.00 94 1011.3
20260509045953 68 84 0.0 1.0 0.00 0.08 0.00 93 1011.2
20260509044447 69 96 0.0 2.0 0.00 0.08 0.08 92 1010.9
20260509042950 69 153 1.0 4.0 0.00 0.08 0.08 91 1010.4
20260509041448 70 172 2.0 5.0 0.00 0.08 0.08 91 1010.4
20260509035952 70 181 3.0 7.0 0.00 0.08 0.08 90 1010.1
20260509034447 71 203 3.0 8.0 0.00 0.08 0.08 90 1010.1
20260509032950 71 146 3.0 14.0 0.00 0.08 0.08 89 1009.9
20260509031448 71 187 4.0 9.0 0.00 0.08 0.08 88 1010.0
20260509025952 71 176 2.0 7.0 0.00 0.08 0.08 88 1009.6
20260509024447 72 156 2.0 5.0 0.00 0.08 0.08 88 1009.5
20260509022950 72 161 4.0 6.0 0.00 0.08 0.08 87 1009.2
20260509021447 72 169 4.0 8.0 0.00 0.08 0.08 86 1009.2
20260509015952 72 153 2.0 5.0 0.00 0.08 0.08 86 1009.3
20260509014447 73 175 3.0 6.0 0.00 0.08 0.08 85 1009.3
20260509012950 73 183 1.0 4.0 0.00 0.08 0.08 85 1009.2
20260509011447 73 153 3.0 7.0 0.00 0.08 0.08 84 1008.9
20260509005952 73 160 3.0 6.0 0.00 0.08 0.08 82 1008.6
20260509004447 74 160 1.0 6.0 0.00 0.08 0.08 81 1008.6
20260509002951 74 132 1.0 6.0 0.00 0.08 0.08 80 1008.5
20260509001447 74 145 2.0 6.0 0.00 0.08 0.08 80 1008.7
20260508235952 74 147 2.0 5.0 0.00 0.08 0.08 79 1008.8
20260508234447 75 195 3.0 7.0 0.00 0.08 0.08 78 1008.9
20260508232950 75 169 4.0 8.0 0.00 0.08 0.08 77 1008.8
20260508231447 76 189 2.0 5.0 0.00 0.08 0.08 77 1008.8
20260508225952 76 200 4.0 9.0 0.00 0.08 0.08 76 1008.7
20260508224447 75 184 6.0 11.0 0.00 0.08 0.08 78 1008.7
20260508222950 75 226 4.0 11.0 0.00 0.08 0.08 76 1009.0
20260508214447 72 188 3.0 7.0 0.00 0.08 0.08 79 1009.5
20260508212949 72 79 2.0 5.0 0.00 0.08 0.08 81 1009.7